Year,Month,Day,Hour,Minute,Value (Times are PST for temperature in C)
2007,07,15,00,00,20.10
2007,07,15,00,01,20.10
2007,07,15,00,02,20.10
2007,07,15,00,03,20.10
2007,07,15,00,04,20.10
2007,07,15,00,05,20.00
2007,07,15,00,06,20.00
2007,07,15,00,07,20.00
2007,07,15,00,08,19.90
2007,07,15,00,09,19.90
2007,07,15,00,10,19.90
2007,07,15,00,11,19.80
2007,07,15,00,12,19.80
2007,07,15,00,13,19.70
2007,07,15,01,02,17.60
2007,07,15,01,03,17.60
2007,07,15,01,04,17.70
2007,07,15,01,05,17.70
2007,07,15,01,06,17.70
2007,07,15,01,07,17.70
2007,07,15,01,08,17.70
2007,07,15,01,09,17.80
2007,07,15,01,10,17.80
2007,07,15,01,11,17.80
2007,07,15,01,12,17.90
2007,07,15,01,13,17.90
2007,07,15,01,14,17.90
2007,07,15,01,15,17.90
2007,07,15,01,16,18.00
2007,07,15,01,17,18.00
2007,07,15,01,18,18.00
2007,07,15,01,19,18.10
2007,07,15,01,20,18.10
2007,07,15,01,21,18.10
2007,07,15,01,22,18.20
2007,07,15,01,23,18.20
2007,07,15,01,24,18.20
2007,07,15,01,25,18.20
2007,07,15,01,26,18.20
2007,07,15,01,27,18.20
2007,07,15,01,28,18.20
2007,07,15,01,29,18.20
2007,07,15,01,30,18.20
2007,07,15,01,31,18.20
2007,07,15,01,32,18.20
2007,07,15,01,33,18.20
2007,07,15,01,34,18.30
2007,07,15,01,35,18.30
2007,07,15,01,36,18.30
2007,07,15,01,37,18.40
2007,07,15,01,38,18.40
2007,07,15,01,39,18.40
2007,07,15,01,40,18.40
2007,07,15,01,41,18.40
2007,07,15,01,42,18.50
2007,07,15,01,43,18.50
2007,07,15,01,44,18.50
2007,07,15,01,45,18.50
2007,07,15,01,46,18.50
2007,07,15,01,47,18.50
2007,07,15,01,48,18.50
2007,07,15,01,49,18.50
2007,07,15,01,50,18.60
2007,07,15,01,51,18.60
2007,07,15,01,52,18.60
2007,07,15,01,53,18.60
2007,07,15,01,54,18.60
2007,07,15,01,55,18.60
2007,07,15,01,56,18.60
2007,07,15,01,57,18.60
2007,07,15,01,58,18.60
2007,07,15,01,59,18.60
2007,07,15,02,00,18.60
2007,07,15,02,01,18.70
2007,07,15,02,02,18.70
2007,07,15,02,03,18.70
2007,07,15,02,04,18.70
2007,07,15,02,05,18.70
2007,07,15,02,06,18.70
2007,07,15,02,07,18.70
2007,07,15,02,08,18.70
2007,07,15,02,09,18.70
2007,07,15,02,10,18.70
2007,07,15,02,11,18.60
2007,07,15,02,12,18.60
2007,07,15,02,13,18.60
2007,07,15,02,14,18.60
2007,07,15,02,15,18.60
2007,07,15,02,16,18.60
2007,07,15,02,17,18.60
2007,07,15,02,18,18.60
2007,07,15,02,19,18.60
2007,07,15,02,20,18.60
2007,07,15,02,21,18.60
2007,07,15,02,22,18.60
2007,07,15,02,23,18.60
2007,07,15,02,24,18.60
2007,07,15,02,25,18.60
2007,07,15,02,26,18.60
2007,07,15,02,27,18.60
2007,07,15,02,28,18.70
2007,07,15,02,29,18.60
2007,07,15,02,30,18.60
2007,07,15,02,31,18.60
2007,07,15,02,32,18.60
2007,07,15,02,33,18.60
2007,07,15,02,34,18.60
2007,07,15,02,35,18.60
2007,07,15,02,36,18.50
2007,07,15,02,37,18.50
2007,07,15,02,38,18.50
2007,07,15,02,39,18.50
2007,07,15,02,40,18.40
2007,07,15,02,41,18.40
2007,07,15,02,42,18.40
2007,07,15,02,43,18.40
2007,07,15,02,44,18.40
2007,07,15,02,45,18.40
2007,07,15,02,46,18.30
2007,07,15,02,47,18.30
2007,07,15,02,48,18.30
2007,07,15,02,49,18.30
2007,07,15,02,50,18.30
2007,07,15,02,51,18.30
2007,07,15,02,52,18.30
2007,07,15,02,53,18.20
2007,07,15,02,54,18.30
2007,07,15,02,55,18.30
2007,07,15,02,56,18.30
2007,07,15,02,57,18.30
2007,07,15,02,58,18.30
2007,07,15,02,59,18.30
2007,07,15,03,00,18.30
2007,07,15,03,01,18.40
2007,07,15,03,02,18.40
2007,07,15,03,03,18.40
2007,07,15,03,04,18.40
2007,07,15,03,05,18.40
2007,07,15,03,06,18.40
2007,07,15,03,07,18.40
2007,07,15,03,08,18.40
2007,07,15,03,09,18.40
2007,07,15,03,10,18.40
2007,07,15,03,11,18.30
2007,07,15,03,12,18.30
2007,07,15,03,13,18.30
2007,07,15,03,14,18.30
2007,07,15,03,15,18.30
2007,07,15,03,16,18.30
2007,07,15,03,17,18.30
2007,07,15,03,18,18.30
2007,07,15,03,19,18.30
2007,07,15,03,20,18.30
2007,07,15,03,21,18.30
2007,07,15,03,22,18.30
2007,07,15,03,23,18.30
2007,07,15,03,24,18.30
2007,07,15,03,25,18.30
2007,07,15,03,26,18.30
2007,07,15,03,27,18.30
2007,07,15,03,28,18.30
2007,07,15,03,29,18.30
2007,07,15,03,30,18.30
2007,07,15,03,31,18.30
2007,07,15,03,32,18.30
2007,07,15,03,33,18.30
2007,07,15,03,34,18.40
2007,07,15,03,35,18.40
2007,07,15,03,36,18.40
2007,07,15,03,37,18.50
2007,07,15,03,38,18.50
2007,07,15,03,39,18.50
2007,07,15,03,40,18.50
2007,07,15,03,41,18.50
2007,07,15,03,42,18.50
2007,07,15,03,43,18.50
2007,07,15,03,44,18.60
2007,07,15,03,45,18.60
2007,07,15,03,46,18.70
2007,07,15,03,47,18.70
2007,07,15,03,48,18.80
2007,07,15,03,49,18.80
2007,07,15,03,50,18.80
2007,07,15,03,51,18.90
2007,07,15,03,52,18.90
2007,07,15,03,53,18.90
2007,07,15,03,54,19.00
2007,07,15,03,55,19.00
2007,07,15,03,56,19.00
2007,07,15,03,57,19.00
2007,07,15,03,58,19.00
2007,07,15,03,59,19.00
2007,07,15,04,00,19.00
2007,07,15,04,01,19.00
2007,07,15,04,02,19.00
2007,07,15,04,03,19.00
2007,07,15,04,04,18.90
2007,07,15,04,05,18.90
2007,07,15,04,06,18.90
2007,07,15,04,07,18.90
2007,07,15,04,08,18.80
2007,07,15,04,09,18.80
2007,07,15,04,10,18.70
2007,07,15,04,11,18.70
2007,07,15,04,12,18.60
2007,07,15,04,13,18.60
2007,07,15,04,14,18.60
2007,07,15,04,15,18.50
2007,07,15,04,16,18.50
2007,07,15,04,17,18.50
2007,07,15,04,18,18.50
2007,07,15,04,19,18.40
2007,07,15,04,20,18.40
2007,07,15,04,21,18.40
2007,07,15,04,22,18.30
2007,07,15,04,23,18.30
2007,07,15,04,24,18.30
2007,07,15,04,25,18.20
2007,07,15,04,26,18.20
2007,07,15,04,27,18.20
2007,07,15,04,28,18.10
2007,07,15,04,29,18.10
2007,07,15,04,30,18.10
2007,07,15,04,31,18.10
2007,07,15,04,32,18.00
2007,07,15,04,33,18.00
2007,07,15,04,34,18.00
2007,07,15,04,35,18.00
2007,07,15,04,36,18.00
2007,07,15,04,37,18.00
2007,07,15,04,38,18.10
2007,07,15,04,39,18.10
2007,07,15,04,40,18.10
2007,07,15,04,41,18.20
2007,07,15,04,42,18.20
2007,07,15,04,43,18.40
2007,07,15,04,44,18.50
2007,07,15,04,45,18.60
2007,07,15,04,46,18.60
2007,07,15,04,47,18.60
2007,07,15,04,48,18.70
2007,07,15,04,49,18.70
2007,07,15,04,50,18.70
2007,07,15,04,51,18.70
2007,07,15,04,52,18.70
2007,07,15,04,53,18.60
2007,07,15,04,54,18.60
2007,07,15,04,55,18.60
2007,07,15,04,56,18.50
2007,07,15,04,57,18.50
2007,07,15,04,58,18.50
2007,07,15,04,59,18.60
2007,07,15,05,00,18.60
2007,07,15,05,01,18.70
2007,07,15,05,02,18.80
2007,07,15,05,03,18.90
2007,07,15,05,04,19.00
2007,07,15,05,05,19.10
2007,07,15,05,06,19.20
2007,07,15,05,07,19.30
2007,07,15,05,08,19.30
2007,07,15,05,09,19.30
2007,07,15,05,10,19.40
2007,07,15,05,11,19.40
2007,07,15,05,12,19.40
2007,07,15,05,13,19.40
2007,07,15,05,14,19.40
2007,07,15,05,15,19.30
2007,07,15,05,16,19.30
2007,07,15,05,17,19.30
2007,07,15,05,18,19.30
2007,07,15,05,19,19.20
2007,07,15,05,20,19.30
2007,07,15,05,21,19.30
2007,07,15,05,22,19.40
2007,07,15,05,23,19.40
2007,07,15,05,24,19.50
2007,07,15,05,25,19.60
2007,07,15,05,26,19.60
2007,07,15,05,27,19.50
2007,07,15,05,28,19.50
2007,07,15,05,29,19.40
2007,07,15,05,30,19.40
2007,07,15,05,31,19.40
2007,07,15,05,32,19.50
2007,07,15,05,33,19.50
2007,07,15,05,34,19.60
2007,07,15,05,35,19.60
2007,07,15,05,36,19.60
2007,07,15,05,37,19.60
2007,07,15,05,38,19.60
2007,07,15,05,39,19.60
2007,07,15,05,40,19.60
2007,07,15,05,41,19.70
2007,07,15,05,42,19.70
2007,07,15,05,43,19.70
2007,07,15,05,44,19.70
2007,07,15,05,45,19.70
2007,07,15,05,46,19.70
2007,07,15,05,47,19.70
2007,07,15,05,48,19.70
2007,07,15,05,49,19.70
2007,07,15,05,50,19.70
2007,07,15,05,51,19.70
2007,07,15,05,52,19.60
2007,07,15,05,53,19.60
2007,07,15,05,54,19.60
2007,07,15,05,55,19.60
2007,07,15,05,56,19.60
2007,07,15,05,57,19.60
2007,07,15,05,58,19.60
2007,07,15,05,59,19.60
2007,07,15,06,00,19.60
2007,07,15,06,01,19.60
2007,07,15,06,02,19.60
2007,07,15,06,03,19.60
2007,07,15,06,04,19.50
2007,07,15,06,05,19.50
2007,07,15,06,06,19.50
2007,07,15,06,07,19.40
2007,07,15,06,08,19.40
2007,07,15,06,09,19.40
2007,07,15,06,10,19.40
2007,07,15,06,11,19.40
2007,07,15,06,12,19.40
2007,07,15,06,13,19.40
2007,07,15,06,14,19.40
2007,07,15,06,15,19.40
2007,07,15,06,16,19.40
2007,07,15,06,17,19.40
2007,07,15,06,18,19.40
2007,07,15,06,19,19.40
2007,07,15,06,20,19.40
2007,07,15,06,21,19.40
2007,07,15,06,22,19.30
2007,07,15,06,23,19.30
2007,07,15,06,24,19.30
2007,07,15,06,25,19.30
2007,07,15,06,26,19.30
2007,07,15,06,27,19.30
2007,07,15,06,28,19.30
2007,07,15,06,29,19.30
2007,07,15,06,30,19.30
2007,07,15,06,31,19.30
2007,07,15,06,32,19.30
2007,07,15,06,33,19.30
2007,07,15,06,34,19.30
2007,07,15,06,35,19.30
2007,07,15,06,36,19.30
2007,07,15,06,37,19.30
2007,07,15,06,38,19.30
2007,07,15,06,39,19.30
2007,07,15,06,40,19.30
2007,07,15,06,41,19.30
2007,07,15,06,42,19.30
2007,07,15,06,43,19.30
2007,07,15,06,44,19.30
2007,07,15,06,45,19.30
2007,07,15,06,46,19.30
2007,07,15,06,47,19.30
2007,07,15,06,48,19.30
2007,07,15,06,49,19.40
2007,07,15,06,50,19.40
2007,07,15,06,51,19.40
2007,07,15,06,52,19.40
2007,07,15,06,53,19.40
2007,07,15,06,54,19.50
2007,07,15,06,55,19.50
2007,07,15,06,56,19.50
2007,07,15,06,57,19.50
2007,07,15,06,58,19.50
2007,07,15,06,59,19.50
2007,07,15,07,00,19.50
2007,07,15,07,01,19.50
2007,07,15,07,02,19.50
2007,07,15,07,03,19.60
2007,07,15,07,04,19.60
2007,07,15,07,05,19.60
2007,07,15,07,06,19.60
2007,07,15,07,07,19.60
2007,07,15,07,08,19.60
2007,07,15,07,09,19.60
2007,07,15,07,10,19.60
2007,07,15,07,11,19.60
2007,07,15,07,12,19.60
2007,07,15,07,13,19.60
2007,07,15,07,14,19.60
2007,07,15,07,15,19.60
2007,07,15,07,16,19.60
2007,07,15,07,17,19.70
2007,07,15,07,18,19.70
2007,07,15,07,19,19.70
2007,07,15,07,20,19.80
2007,07,15,07,21,19.80
2007,07,15,07,22,19.80
2007,07,15,07,23,19.80
2007,07,15,07,24,19.90
2007,07,15,07,25,19.90
2007,07,15,07,26,19.90
2007,07,15,07,27,19.90
2007,07,15,07,28,20.00
2007,07,15,07,29,20.00
2007,07,15,07,30,20.00
2007,07,15,07,31,20.00
2007,07,15,07,32,20.00
2007,07,15,07,33,20.00
2007,07,15,07,34,20.00
2007,07,15,07,35,20.00
2007,07,15,07,36,20.00
2007,07,15,07,37,20.10
2007,07,15,07,38,20.10
2007,07,15,07,39,20.10
2007,07,15,07,40,20.10
2007,07,15,07,41,20.20
2007,07,15,07,42,20.20
2007,07,15,07,43,20.30
2007,07,15,07,44,20.30
2007,07,15,07,45,20.30
2007,07,15,07,46,20.30
2007,07,15,07,47,20.30
2007,07,15,07,48,20.30
2007,07,15,07,49,20.30
2007,07,15,07,50,20.30
2007,07,15,07,51,20.30
2007,07,15,07,52,20.30
2007,07,15,07,53,20.30
2007,07,15,07,54,20.30
2007,07,15,07,55,20.30
2007,07,15,07,56,20.30
2007,07,15,07,57,20.30
2007,07,15,07,58,20.30
2007,07,15,07,59,20.30
2007,07,15,08,00,20.30
2007,07,15,08,01,20.30
2007,07,15,08,02,20.30
2007,07,15,08,03,20.30
2007,07,15,08,04,20.30
2007,07,15,08,05,20.30
2007,07,15,08,06,20.30
2007,07,15,08,07,20.30
2007,07,15,08,08,20.30
2007,07,15,08,09,20.40
2007,07,15,08,10,20.40
2007,07,15,08,11,20.50
2007,07,15,08,12,20.60
2007,07,15,08,13,20.60
2007,07,15,08,14,20.70
2007,07,15,08,15,20.70
2007,07,15,08,16,20.80
2007,07,15,08,17,20.80
2007,07,15,08,18,20.90
2007,07,15,08,19,20.90
2007,07,15,08,20,20.90
2007,07,15,08,21,20.90
2007,07,15,08,22,21.00
2007,07,15,08,23,21.00
2007,07,15,08,24,21.10
2007,07,15,08,25,21.10
2007,07,15,08,26,21.20
2007,07,15,08,27,21.20
2007,07,15,08,28,21.30
2007,07,15,08,29,21.30
2007,07,15,08,30,21.30
2007,07,15,08,31,21.30
2007,07,15,08,32,21.30
2007,07,15,08,33,21.40
2007,07,15,08,34,21.40
2007,07,15,08,35,21.40
2007,07,15,08,36,21.40
2007,07,15,08,37,21.40
2007,07,15,08,38,21.40
2007,07,15,08,39,21.40
2007,07,15,08,40,21.40
2007,07,15,08,41,21.40
2007,07,15,08,42,21.40
2007,07,15,08,43,21.40
2007,07,15,08,44,21.40
2007,07,15,08,45,21.40
2007,07,15,08,46,21.40
2007,07,15,08,47,21.40
2007,07,15,08,48,21.40
2007,07,15,08,49,21.40
2007,07,15,08,50,21.40
2007,07,15,08,51,21.30
2007,07,15,08,52,21.30
2007,07,15,08,53,21.30
2007,07,15,08,54,21.30
2007,07,15,08,55,21.30
2007,07,15,08,56,21.30
2007,07,15,08,57,21.30
2007,07,15,08,58,21.40
2007,07,15,08,59,21.40
2007,07,15,09,00,21.50
2007,07,15,09,01,21.60
2007,07,15,09,02,21.60
2007,07,15,09,03,21.60
2007,07,15,09,04,21.50
2007,07,15,09,05,21.50
2007,07,15,09,06,21.50
2007,07,15,09,07,21.60
2007,07,15,09,08,21.60
2007,07,15,09,09,21.60
2007,07,15,09,10,21.70
2007,07,15,09,11,21.80
2007,07,15,09,12,21.80
2007,07,15,09,13,21.80
2007,07,15,09,14,21.80
2007,07,15,09,15,21.80
2007,07,15,09,16,21.70
2007,07,15,09,17,21.70
2007,07,15,09,18,21.70
2007,07,15,09,19,21.80
2007,07,15,09,20,21.80
2007,07,15,09,21,21.80
2007,07,15,09,22,21.80
2007,07,15,09,23,21.80
2007,07,15,09,24,21.90
2007,07,15,09,25,22.00
2007,07,15,09,26,22.10
2007,07,15,09,27,22.10
2007,07,15,09,28,22.00
2007,07,15,09,29,22.00
2007,07,15,09,30,21.90
2007,07,15,09,31,21.80
2007,07,15,09,32,21.80
2007,07,15,09,33,21.80
2007,07,15,09,34,21.80
2007,07,15,09,35,21.80
2007,07,15,09,36,21.70
2007,07,15,09,37,21.70
2007,07,15,09,38,21.80
2007,07,15,09,39,21.80
2007,07,15,09,40,21.80
2007,07,15,09,41,21.90
2007,07,15,09,42,22.00
2007,07,15,09,43,22.10
2007,07,15,09,44,22.10
2007,07,15,09,45,22.10
2007,07,15,09,46,22.20
2007,07,15,09,47,22.20
2007,07,15,09,48,22.20
2007,07,15,09,49,22.20
2007,07,15,09,50,22.20
2007,07,15,09,51,22.20
2007,07,15,09,52,22.20
2007,07,15,09,53,22.20
2007,07,15,09,54,22.20
2007,07,15,09,55,22.20
2007,07,15,09,56,22.20
2007,07,15,09,57,22.10
2007,07,15,09,58,22.10
2007,07,15,09,59,22.10
2007,07,15,10,00,22.10
2007,07,15,10,01,22.10
2007,07,15,10,02,22.10
2007,07,15,10,03,22.20
2007,07,15,10,04,22.20
2007,07,15,10,05,22.30
2007,07,15,10,06,22.30
2007,07,15,10,07,22.50
2007,07,15,10,08,22.50
2007,07,15,10,09,22.60
2007,07,15,10,10,22.60
2007,07,15,10,11,22.60
2007,07,15,10,12,22.60
2007,07,15,10,13,22.60
2007,07,15,10,14,22.60
2007,07,15,10,15,22.60
2007,07,15,10,16,22.70
2007,07,15,10,17,22.70
2007,07,15,10,18,22.70
2007,07,15,10,19,22.70
2007,07,15,10,20,22.80
2007,07,15,10,21,22.80
2007,07,15,10,22,22.80
2007,07,15,10,23,22.80
2007,07,15,10,24,22.70
2007,07,15,10,25,22.70
2007,07,15,10,26,22.60
2007,07,15,10,27,22.60
2007,07,15,10,28,22.60
2007,07,15,10,29,22.70
2007,07,15,10,30,22.70
2007,07,15,10,31,22.80
2007,07,15,10,32,22.80
2007,07,15,10,33,22.90
2007,07,15,10,34,22.90
2007,07,15,10,35,22.80
2007,07,15,10,36,22.80
2007,07,15,10,37,22.70
2007,07,15,10,38,22.70
2007,07,15,10,39,22.60
2007,07,15,10,40,22.70
2007,07,15,10,41,22.70
2007,07,15,10,42,22.80
2007,07,15,10,43,22.70
2007,07,15,10,44,22.70
2007,07,15,10,45,22.80
2007,07,15,10,46,22.70
2007,07,15,10,47,22.80
2007,07,15,10,48,22.80
2007,07,15,10,49,23.00
2007,07,15,10,50,23.10
2007,07,15,10,51,23.10
2007,07,15,10,52,23.00
2007,07,15,10,53,23.00
2007,07,15,10,54,23.00
2007,07,15,10,55,22.90
2007,07,15,10,56,22.90
2007,07,15,10,57,22.90
2007,07,15,10,58,22.90
2007,07,15,10,59,22.90
2007,07,15,11,00,23.00
2007,07,15,11,01,22.90
2007,07,15,11,02,22.90
2007,07,15,11,03,22.90
2007,07,15,11,04,23.00
2007,07,15,11,05,23.00
2007,07,15,11,06,23.10
2007,07,15,11,07,23.20
2007,07,15,11,08,23.20
2007,07,15,11,09,23.10
2007,07,15,11,10,23.10
2007,07,15,11,11,22.90
2007,07,15,11,12,22.80
2007,07,15,11,13,22.70
2007,07,15,11,14,22.70
2007,07,15,11,15,22.80
2007,07,15,11,16,22.90
2007,07,15,11,17,23.00
2007,07,15,11,18,23.10
2007,07,15,11,19,23.20
2007,07,15,11,20,23.20
2007,07,15,11,21,23.20
2007,07,15,11,22,23.10
2007,07,15,11,23,23.20
2007,07,15,11,24,23.20
2007,07,15,11,25,23.20
2007,07,15,11,26,23.20
2007,07,15,11,27,23.20
2007,07,15,11,28,23.10
2007,07,15,11,29,23.10
2007,07,15,11,30,23.00
2007,07,15,11,31,22.90
2007,07,15,11,32,22.90
2007,07,15,11,33,22.90
2007,07,15,11,34,22.90
2007,07,15,11,35,22.90
2007,07,15,11,36,23.00
2007,07,15,11,37,23.10
2007,07,15,11,38,23.10
2007,07,15,11,39,23.30
2007,07,15,11,40,23.40
2007,07,15,11,41,23.50
2007,07,15,11,42,23.50
2007,07,15,11,43,23.40
2007,07,15,11,44,23.40
2007,07,15,11,45,23.10
2007,07,15,11,46,22.90
2007,07,15,11,47,22.80
2007,07,15,11,48,22.80
2007,07,15,11,49,22.60
2007,07,15,11,50,22.50
2007,07,15,11,51,22.40
2007,07,15,11,52,22.30
2007,07,15,11,53,22.30
2007,07,15,11,54,22.30
2007,07,15,11,55,22.40
2007,07,15,11,56,22.50
2007,07,15,11,57,22.70
2007,07,15,11,58,22.70
2007,07,15,11,59,22.70
2007,07,15,12,00,22.70
2007,07,15,12,01,22.80
2007,07,15,12,02,22.80
2007,07,15,12,03,22.90
2007,07,15,12,04,23.10
2007,07,15,12,05,23.10
2007,07,15,12,06,23.10
2007,07,15,12,07,23.20
2007,07,15,12,08,23.10
2007,07,15,12,09,23.00
2007,07,15,12,10,22.90
2007,07,15,12,11,22.90
2007,07,15,12,12,22.90
2007,07,15,12,13,22.70
2007,07,15,12,14,22.70
2007,07,15,12,15,22.60
2007,07,15,12,16,22.50
2007,07,15,12,17,22.40
2007,07,15,12,18,22.40
2007,07,15,12,19,22.40
2007,07,15,12,20,22.40
2007,07,15,12,21,22.50
2007,07,15,12,22,22.60
2007,07,15,12,23,22.70
2007,07,15,12,24,22.70
2007,07,15,12,25,22.80
2007,07,15,12,26,22.90
2007,07,15,12,27,23.10
2007,07,15,12,28,23.20
2007,07,15,12,29,23.30
2007,07,15,12,30,23.40
2007,07,15,12,31,23.30
2007,07,15,12,32,23.10
2007,07,15,12,33,23.00
2007,07,15,12,34,22.90
2007,07,15,12,35,22.90
2007,07,15,12,36,23.00
2007,07,15,12,37,22.90
2007,07,15,12,38,22.90
2007,07,15,12,39,23.00
2007,07,15,12,40,22.90
2007,07,15,12,41,22.90
2007,07,15,12,42,22.90
2007,07,15,12,43,22.90
2007,07,15,12,44,22.80
2007,07,15,12,45,22.80
2007,07,15,12,46,22.80
2007,07,15,12,47,22.70
2007,07,15,12,48,22.70
2007,07,15,12,49,22.50
2007,07,15,12,50,22.50
2007,07,15,12,51,22.50
2007,07,15,12,52,22.50
2007,07,15,12,53,22.40
2007,07,15,12,54,22.40
2007,07,15,12,55,22.40
2007,07,15,12,56,22.30
2007,07,15,12,57,22.30
2007,07,15,12,58,22.30
2007,07,15,12,59,22.30
2007,07,15,13,00,22.30
2007,07,15,13,01,22.30
2007,07,15,13,02,22.20
2007,07,15,13,03,22.20
2007,07,15,13,04,22.20
2007,07,15,13,05,22.30
2007,07,15,13,06,22.30
2007,07,15,13,07,22.30
2007,07,15,13,08,22.30
2007,07,15,13,09,22.40
2007,07,15,13,10,22.40
2007,07,15,13,11,22.40
2007,07,15,13,12,22.30
2007,07,15,13,13,22.10
2007,07,15,13,14,22.10
2007,07,15,13,15,22.10
2007,07,15,13,16,22.20
2007,07,15,13,17,22.40
2007,07,15,13,18,22.50
2007,07,15,13,19,22.50
2007,07,15,13,20,22.40
2007,07,15,13,21,22.40
2007,07,15,13,22,22.40
2007,07,15,13,23,22.50
2007,07,15,13,24,22.50
2007,07,15,13,25,22.60
2007,07,15,13,26,22.60
2007,07,15,13,27,22.50
2007,07,15,13,28,22.50
2007,07,15,13,29,22.50
2007,07,15,13,30,22.50
2007,07,15,13,31,22.40
2007,07,15,13,32,22.30
2007,07,15,13,33,22.20
2007,07,15,13,34,22.20
2007,07,15,13,35,22.20
2007,07,15,13,36,22.30
2007,07,15,13,37,22.40
2007,07,15,13,38,22.30
2007,07,15,13,39,22.30
2007,07,15,13,40,22.40
2007,07,15,13,41,22.30
2007,07,15,13,42,22.20
2007,07,15,13,43,22.10
2007,07,15,13,44,22.10
2007,07,15,13,45,22.10
2007,07,15,13,46,22.20
2007,07,15,13,47,22.30
2007,07,15,13,48,22.30
2007,07,15,13,49,22.30
2007,07,15,13,50,22.30
2007,07,15,13,51,22.30
2007,07,15,13,52,22.30
2007,07,15,13,53,22.30
2007,07,15,13,54,22.40
2007,07,15,13,55,22.40
2007,07,15,13,56,22.40
2007,07,15,13,57,22.40
2007,07,15,13,58,22.30
2007,07,15,13,59,22.10
2007,07,15,14,00,22.10
2007,07,15,14,01,22.10
2007,07,15,14,02,22.00
2007,07,15,14,03,22.00
2007,07,15,14,04,22.00
2007,07,15,14,05,22.10
2007,07,15,14,06,22.00
2007,07,15,14,07,22.00
2007,07,15,14,08,21.90
2007,07,15,14,09,21.80
2007,07,15,14,10,21.80
2007,07,15,14,11,21.80
2007,07,15,14,12,21.70
2007,07,15,14,13,21.70
2007,07,15,14,14,21.60
2007,07,15,14,15,21.60
2007,07,15,14,16,21.60
2007,07,15,14,17,21.60
2007,07,15,14,18,21.60
2007,07,15,14,19,21.60
2007,07,15,14,20,21.60
2007,07,15,14,21,21.60
2007,07,15,14,22,21.60
2007,07,15,14,23,21.50
2007,07,15,14,24,21.50
2007,07,15,14,25,21.40
2007,07,15,14,26,21.40
2007,07,15,14,27,21.40
2007,07,15,14,28,21.40
2007,07,15,14,29,21.40
2007,07,15,14,30,21.40
2007,07,15,14,31,21.40
2007,07,15,14,32,21.40
2007,07,15,14,33,21.40
2007,07,15,14,34,21.40
2007,07,15,14,35,21.50
2007,07,15,14,36,21.50
2007,07,15,14,37,21.60
2007,07,15,14,38,21.60
2007,07,15,14,39,21.70
2007,07,15,14,40,21.70
2007,07,15,14,41,21.70
2007,07,15,14,42,21.60
2007,07,15,14,43,21.60
2007,07,15,14,44,21.60
2007,07,15,14,45,21.60
2007,07,15,14,46,21.60
2007,07,15,14,47,21.70
2007,07,15,14,48,21.70
2007,07,15,14,49,21.60
2007,07,15,14,50,21.60
2007,07,15,14,51,21.60
2007,07,15,14,52,21.60
2007,07,15,14,53,21.50
2007,07,15,14,54,21.40
2007,07,15,14,55,21.40
2007,07,15,14,56,21.50
2007,07,15,14,57,21.50
2007,07,15,14,58,21.60
2007,07,15,14,59,21.60
2007,07,15,15,00,21.60
2007,07,15,15,01,21.60
2007,07,15,15,02,21.70
2007,07,15,15,03,21.70
2007,07,15,15,04,21.70
2007,07,15,15,05,21.70
2007,07,15,15,06,21.60
2007,07,15,15,07,21.60
2007,07,15,15,08,21.60
2007,07,15,15,09,21.60
2007,07,15,15,10,21.60
2007,07,15,15,11,21.60
2007,07,15,15,12,21.50
2007,07,15,15,13,21.50
2007,07,15,15,14,21.60
2007,07,15,15,15,21.50
2007,07,15,15,16,21.60
2007,07,15,15,17,21.60
2007,07,15,15,18,21.60
2007,07,15,15,19,21.70
2007,07,15,15,20,21.70
2007,07,15,15,21,21.70
2007,07,15,15,22,21.70
2007,07,15,15,23,21.80
2007,07,15,15,24,21.80
2007,07,15,15,25,21.80
2007,07,15,15,26,21.90
2007,07,15,15,27,21.90
2007,07,15,15,28,21.90
2007,07,15,15,29,21.90
2007,07,15,15,30,21.90
2007,07,15,15,31,22.00
2007,07,15,15,32,21.90
2007,07,15,15,33,21.90
2007,07,15,15,34,21.90
2007,07,15,15,35,21.90
2007,07,15,15,36,22.00
2007,07,15,15,37,22.00
2007,07,15,15,38,22.00
2007,07,15,15,39,21.90
2007,07,15,15,40,22.00
2007,07,15,15,41,22.00
2007,07,15,15,42,22.00
2007,07,15,15,43,21.90
2007,07,15,15,44,21.90
2007,07,15,15,45,21.80
2007,07,15,15,46,21.80
2007,07,15,15,47,21.80
2007,07,15,15,48,21.80
2007,07,15,15,49,21.80
2007,07,15,15,50,21.80
2007,07,15,15,51,21.80
2007,07,15,15,52,21.90
2007,07,15,15,53,21.90
2007,07,15,15,54,22.00
2007,07,15,15,55,22.10
2007,07,15,15,56,22.20
2007,07,15,15,57,22.30
2007,07,15,15,58,22.30
2007,07,15,15,59,22.30
2007,07,15,16,00,22.30
2007,07,15,16,01,22.30
2007,07,15,16,02,22.40
2007,07,15,16,03,22.40
2007,07,15,16,04,22.40
2007,07,15,16,05,22.30
2007,07,15,16,06,22.30
2007,07,15,16,07,22.30
2007,07,15,16,08,22.30
2007,07,15,16,09,22.30
2007,07,15,16,10,22.30
2007,07,15,16,11,22.30
2007,07,15,16,12,22.40
2007,07,15,16,13,22.30
2007,07,15,16,14,22.30
2007,07,15,16,15,22.30
2007,07,15,16,16,22.30
2007,07,15,16,17,22.40
2007,07,15,16,18,22.50
2007,07,15,16,19,22.60
2007,07,15,16,20,22.60
2007,07,15,16,21,22.70
2007,07,15,16,22,22.70
2007,07,15,16,23,22.80
2007,07,15,16,24,22.70
2007,07,15,16,25,22.70
2007,07,15,16,26,22.70
2007,07,15,16,27,22.80
2007,07,15,16,28,22.80
2007,07,15,16,29,22.90
2007,07,15,16,30,23.00
2007,07,15,16,31,23.10
2007,07,15,16,32,23.10
2007,07,15,16,33,23.10
2007,07,15,16,34,23.10
2007,07,15,16,35,23.20
2007,07,15,16,36,23.20
2007,07,15,16,37,23.20
2007,07,15,16,38,23.20
2007,07,15,16,39,23.20
2007,07,15,16,40,23.20
2007,07,15,16,41,23.20
2007,07,15,16,42,23.20
2007,07,15,16,43,23.10
2007,07,15,16,44,23.10
2007,07,15,16,45,23.10
2007,07,15,16,46,23.00
2007,07,15,16,47,22.90
2007,07,15,16,48,22.90
2007,07,15,16,49,22.80
2007,07,15,16,50,22.80
2007,07,15,16,51,22.80
2007,07,15,16,52,22.80
2007,07,15,16,53,22.90
2007,07,15,16,54,23.00
2007,07,15,16,55,23.10
2007,07,15,16,56,23.20
2007,07,15,16,57,23.20
2007,07,15,16,58,23.30
2007,07,15,16,59,23.30
2007,07,15,17,00,23.20
2007,07,15,17,01,23.20
2007,07,15,17,02,23.00
2007,07,15,17,03,23.00
2007,07,15,17,04,23.00
2007,07,15,17,05,23.00
2007,07,15,17,06,23.10
2007,07,15,17,07,23.10
2007,07,15,17,08,23.10
2007,07,15,17,09,23.10
2007,07,15,17,10,23.10
2007,07,15,17,11,23.10
2007,07,15,17,12,23.10
2007,07,15,17,13,22.90
2007,07,15,17,14,22.70
2007,07,15,17,15,22.70
2007,07,15,17,16,22.60
2007,07,15,17,17,22.60
2007,07,15,17,18,22.70
2007,07,15,17,19,22.80
2007,07,15,17,20,22.70
2007,07,15,17,21,22.70
2007,07,15,17,22,22.70
2007,07,15,17,23,22.70
2007,07,15,17,24,22.70
2007,07,15,17,25,22.70
2007,07,15,17,26,22.80
2007,07,15,17,27,22.80
2007,07,15,17,28,22.80
2007,07,15,17,29,22.80
2007,07,15,17,30,22.90
2007,07,15,17,31,22.90
2007,07,15,17,32,22.90
2007,07,15,17,33,22.80
2007,07,15,17,34,22.90
2007,07,15,17,35,22.90
2007,07,15,17,36,22.80
2007,07,15,17,37,22.80
2007,07,15,17,38,22.80
2007,07,15,17,39,22.70
2007,07,15,17,40,22.60
2007,07,15,17,41,22.50
2007,07,15,17,42,22.40
2007,07,15,17,43,22.40
2007,07,15,17,44,22.40
2007,07,15,17,45,22.40
2007,07,15,17,46,22.40
2007,07,15,17,47,22.40
2007,07,15,17,48,22.30
2007,07,15,17,49,22.30
2007,07,15,17,50,22.40
2007,07,15,17,51,22.40
2007,07,15,17,52,22.40
2007,07,15,17,53,22.40
2007,07,15,17,54,22.40
2007,07,15,17,55,22.40
2007,07,15,17,56,22.50
2007,07,15,17,57,22.50
2007,07,15,17,58,22.50
2007,07,15,17,59,22.50
2007,07,15,18,00,22.40
2007,07,15,18,01,22.30
2007,07,15,18,02,22.30
2007,07,15,18,03,22.30
2007,07,15,18,04,22.30
2007,07,15,18,05,22.30
2007,07,15,18,06,22.30
2007,07,15,18,07,22.40